Skip to main content Skip to accessibility
This website is not compatible with your web browser. You should install a newer browser. If you live in Jersey and need help upgrading call the States of Jersey web team on 440099.
Homegov.je

Information and public services for the Island of Jersey

L'înformâtion et les sèrvices publyis pouor I'Île dé Jèrri

  • Choose the service you want to log in to:

  • gov.je

    Update your notification preferences

  • one.gov.je

    Access government services

  • CAESAR

    Clear goods through customs or claim relief

  • Talentlink

    View or update your States of Jersey job application

Local METARs

METAR EGJJ 140020Z AUTO 28008KT 2300 BCFG OVC001/// 18/18 Q1013

METAR EGJB 132350Z 27009KT 4000 VCSH BR FEW002 BKN004 18/18 Q1013

METAR LFRD 140030Z AUTO 32004KT 6000 FEW007 OVC012 18/18 Q1014 TEMPO 2500 BR BKN002

METAR LFRC 140030Z AUTO 27009KT 8000 OVC003 18/18 Q1013

 

 

 

​Apologies to the disruption to normal service. Commercial Aviation Services are available from the Jersey Met Forecaster 01534 448765.

Times are in Greenwich Mean Time (GMT) and not British Summer Time (BST). They will be one hour different during BST.

Back to top
rating button